[[{"header":{"parameterUnit":"m.s-1","parameterCategory":1,"la1":30.2991,"la2":30.254,"lo1":-89.0895,"lo2":-89.0444,"dy":0.0017,"dx":0.0017,"nx":28,"ny":28,"refTime":"2024-07-08T21:00:00:Z","depth":0,"parameterNumber":2,"parameterNumberName":"U-component_of_WINDS"},"data":[0,0,0,0,0,0,0,0,0,0,0,0,0,0,0,0,0,0,0,0,0,0,0,0,0,0,0,0,0,0,0,0,0,0,0,0,0,0,0,0,0,0,0,0,0,0,0,0,0,0,0,0,0,0,0,0,0,0,-3.8914,-3.8913,0,-3.8884,-3.8883,-3.8883,-3.8811,-3.8809,-3.8808,-3.8806,-3.8777,-3.8777,-3.8778,0,0,0,0,0,0,0,0,0,0,0,0,0,-3.8911,-3.8911,-3.8914,-3.8913,-3.8913,-3.8884,-3.8883,-3.8883,-3.8811,-3.8809,-3.8807,-3.8805,-3.8776,-3.8777,-3.8778,0,0,0,0,0,0,0,0,0,0,0,0,0,-3.89,-3.8911,-3.8914,-3.8873,-3.887,-3.8884,-3.8883,-3.8883,-3.8811,-3.8809,-3.8807,-3.8805,-3.8776,-3.8777,-3.8778,-3.8829,0,0,-3.8781,-3.8781,0,0,0,0,0,0,0,0,-3.89,-3.89,-3.888,-3.8876,-3.8872,-3.8849,-3.8871,-3.8865,-3.8812,-3.8833,-3.8806,-3.8804,-3.8802,-3.8801,-3.88,-3.8828,-3.8826,-3.8781,-3.8781,-3.8782,-3.8782,0,0,0,0,0,0,0,-3.8901,-3.8901,-3.8902,-3.888,-3.8875,-3.8858,-3.8853,-3.887,-3.8831,-3.8831,-3.8826,-3.8823,-3.88,-3.88,-3.8799,-3.8826,-3.8781,-3.8782,-3.8782,-3.8783,-3.8895,-3.8897,0,0,0,0,0,0,-3.8908,-3.8902,-3.8903,-3.8901,-3.8881,-3.886,-3.8855,-3.8858,-3.8831,-3.8824,-3.8825,-3.882,-3.8799,-3.8798,-3.8798,-3.8856,-3.8782,-3.8783,-3.8783,-3.8892,-3.8895,-3.8898,0,0,0,0,0,0,-3.8908,-3.8908,-3.8904,-3.89,-3.8898,-3.8862,-3.8866,-3.8859,-3.8859,-3.8826,-3.8819,-3.8832,-3.8797,-3.8797,-3.8822,-3.8854,-3.8783,-3.8784,-3.889,-3.8893,-3.8897,-3.8973,0,0,0,0,0,0,-3.8908,-3.8909,-3.8927,-3.8901,-3.8899,-3.8928,-3.8868,-3.886,-3.886,-3.8853,-3.8831,-3.8825,-3.8796,-3.8821,-3.8823,-3.8854,-3.8785,-3.8887,-3.8891,-3.8896,-3.8967,-3.8979,-3.8988,0,0,0,0,0,-3.8908,-3.895,-3.8929,-3.8929,-3.8921,-3.893,-3.8929,-3.8894,-3.8863,-3.8882,-3.8861,-3.8825,-3.8851,-3.8824,-3.8826,-3.8858,-3.8884,-3.889,-3.8895,-3.8963,-3.8977,-3.8988,0,0,0,0,0,0,-3.8981,-3.8946,-3.8921,-3.8956,-3.8947,-3.8918,-3.894,-3.891,-3.8909,-3.8902,-3.886,-3.8855,-3.8887,-3.8875,-3.8846,-3.8906,-3.8862,-3.8868,-3.8913,-3.8925,-3.8936,-3.8937,-3.8785,0,0,0,0,0,-3.9001,-3.9011,-3.898,-3.9014,-3.901,-3.8976,-3.8979,-3.8953,-3.8942,-3.8938,-3.8919,-3.891,-3.8915,-3.892,-3.8923,-3.8966,-3.896,-3.8989,-3.8999,-3.9008,-3.9014,-3.9036,-3.9048,-3.8916,-3.8916,-3.8916,0,0,-3.9043,-3.9025,-3.9034,-3.9028,-3.9017,-3.9029,-3.8973,-3.8988,-3.8997,-3.894,-3.8962,-3.8949,-3.8936,-3.897,-3.8984,-3.8961,-3.9049,-3.9015,-3.9022,-3.9023,-3.9043,-3.9055,-3.9066,-3.892,-3.8919,-3.8918,0,0,-3.9124,-3.9112,-3.9138,-3.9129,-3.9114,-3.9092,-3.9099,-3.9075,-3.9063,-3.9086,-3.9044,-3.9054,-3.9065,-3.9057,-3.9055,-3.9136,-3.9103,-3.9139,-3.9193,-3.9215,-3.9226,-3.9235,-3.9263,-3.9274,-3.9144,-3.9145,-3.9145,0,-3.9177,-3.9193,-3.9156,-3.9173,-3.9172,-3.9122,-3.9149,-3.9143,-3.913,-3.9131,-3.9105,-3.9118,-3.9106,-3.9138,-3.9158,-3.9158,-3.9165,-3.914,-3.9227,-3.9236,-3.9244,-3.927,-3.9281,-3.9149,-3.9148,-3.9148,-3.9148,0,-3.926,-3.9271,-3.9295,-3.9284,-3.9286,-3.9308,-3.9275,-3.9281,-3.9256,-3.9237,-3.9261,-3.9245,-3.9244,-3.9251,-3.9226,-3.928,-3.9266,-3.9235,-3.9189,-3.9261,-3.9286,-3.9296,-3.9155,-3.9154,-3.9152,-3.9151,0,0,-3.9384,-3.9353,-3.9362,-3.9357,-3.9338,-3.9347,-3.9368,-3.9367,-3.9374,-3.9368,-3.9384,-3.9395,-3.9367,-3.9364,-3.9339,-3.9358,-3.9424,-3.9324,-3.9324,-3.9343,-3.9482,-3.9505,-3.9518,-3.9403,-3.9404,-3.9406,-3.9483,0,-3.946,-3.9493,-3.9461,-3.95,-3.9511,-3.9465,-3.9483,-3.9474,-3.9457,-3.9464,-3.9446,-3.9454,-3.9415,-3.9414,-3.9431,-3.9412,-3.9451,-3.9406,-3.9418,-3.9418,-3.9421,-3.953,-3.9554,-3.9628,-3.9492,-3.9494,-3.9495,0,-3.9553,-3.9551,-3.9591,-3.9571,-3.9574,-3.9591,-3.9588,-3.9596,-3.9585,-3.9571,-3.957,-3.9539,-3.9559,-3.9516,-3.9543,-3.9513,-3.9516,-3.9508,-3.951,-3.9509,-3.946,-3.9531,-3.965,-3.9661,-3.951,-3.9509,-3.9508,0,-3.9639,-3.9647,-3.9672,-3.9669,-3.9646,-3.9659,-3.965,-3.9637,-3.9639,-3.9637,-3.9638,-3.964,-3.964,-3.9642,-3.9613,-3.9584,-3.9644,-3.9598,-3.9633,-3.9634,-3.9646,-3.9646,-3.9767,-3.965,-3.965,-3.965,-3.965,0,-3.9727,-3.9753,-3.971,-3.9726,-3.9755,-3.9719,-3.9748,-3.9735,-3.9724,-3.9736,-3.9697,-3.971,-3.9671,-3.968,-3.9658,-3.9684,-3.9685,-3.9674,-3.9668,-3.9677,-3.9679,-3.9678,-3.9672,-3.9653,-3.9652,-3.9652,-3.9651,0,-3.9827,-3.98,-3.9824,-3.98,-3.9795,-3.9817,-3.9797,-3.9811,-3.9792,-3.9809,-3.9811,-3.9781,-3.979,-3.9762,-3.9766,-3.9751,-3.9789,-3.9775,-3.9792,-3.9788,-3.9824,-3.9821,-3.9948,-3.9963,-3.9838,-3.984,-3.9841,0,-3.9884,-3.9904,-3.9882,-3.9888,-3.9881,-3.989,-3.9892,-3.9858,-3.9862,-3.9852,-3.9868,-3.9873,-3.9876,-3.9892,-3.9871,-3.9875,-3.986,-3.9904,-3.986,-3.9869,-3.986,-3.9859,-3.9861,-3.9913,-3.9915,-3.9916,-3.9917,0,-3.9989,-3.9974,-3.9979,-3.9979,-3.9983,-3.9981,-3.9977,-3.9984,-3.9948,-3.9954,-3.9963,-3.9965,-3.997,-3.9976,-3.9975,-3.9966,-3.9936,-3.9931,-3.9939,-3.9949,-3.9958,-3.9953,-3.9817,-3.9928,-3.9927,-3.9926,-3.9926,-3.9925,-4.0069,-4.0084,-4.0071,-4.0078,-4.0071,-4.0069,-4.0081,-4.0064,-4.007,-4.0071,-4.0051,-4.0064,-4.0054,-4.0049,-4.0044,-4.0054,-4.0034,-4.0046,-4.0049,-4.0052,-4.0058,-3.9958,-4.0054,-4.0054,-4.0053,-4.0053,-4.0053,0,-4.0171,-4.0161,-4.0167,-4.0163,-4.0168,-4.0139,-4.0134,-4.014,-4.0152,-4.0145,-4.0149,-4.0159,-4.0165,-4.0146,-4.0149,-4.0161,-4.0147,-4.0163,-4.0161,-4.016,-4.0076,-4.0068,-4.0174,-4.0174,-4.0174,-4.0174,-4.0174,-4.0174,-4.0224,-4.0248,-4.0233,-4.0254,-4.0244,-4.0256,-4.0255,-4.0253,-4.0248,-4.0261,-4.0266,-4.0253,-4.0241,-4.0244,-4.0249,-4.0243,-4.0246,-4.0267,-4.0256,-4.0178,-4.0166,-4.0155,-4.0147,-4.0268,-4.0268,-4.0339,-4.034,-4.034]},{"header":{"parameterUnit":"m.s-1","parameterCategory":1,"la1":30.2991,"la2":30.254,"lo1":-89.0895,"lo2":-89.0444,"dy":0.0017,"dx":0.0017,"nx":28,"ny":28,"refTime":"2024-07-08T21:00:00:Z","depth":0,"parameterNumber":3,"parameterNumberName":"V-component_of_WINDS"},"data":[0,0,0,0,0,0,0,0,0,0,0,0,0,0,0,0,0,0,0,0,0,0,0,0,0,0,0,0,0,0,0,0,0,0,0,0,0,0,0,0,0,0,0,0,0,0,0,0,0,0,0,0,0,0,0,0,0,0,3.8422,3.8422,0,3.8459,3.846,3.846,3.8457,3.8457,3.8456,3.8456,3.8491,3.8492,3.8494,0,0,0,0,0,0,0,0,0,0,0,0,0,3.8346,3.8348,3.8422,3.8422,3.8423,3.8459,3.846,3.846,3.8457,3.8457,3.8456,3.8455,3.849,3.8492,3.8494,0,0,0,0,0,0,0,0,0,0,0,0,0,3.8381,3.8348,3.8422,3.8426,3.8427,3.8459,3.846,3.846,3.8458,3.8457,3.8456,3.8455,3.849,3.8492,3.8494,3.8524,0,0,3.8501,3.8502,0,0,0,0,0,0,0,0,3.8379,3.8384,3.8425,3.8426,3.8427,3.8453,3.8446,3.8482,3.8458,3.8446,3.8456,3.8455,3.8479,3.8482,3.849,3.8526,3.8527,3.8501,3.8502,3.8503,3.8504,0,0,0,0,0,0,0,3.8376,3.8382,3.8437,3.8425,3.8427,3.8425,3.8429,3.8453,3.8466,3.8447,3.8447,3.8451,3.8479,3.8488,3.8491,3.8528,3.8501,3.8503,3.8504,3.8505,3.8591,3.8592,0,0,0,0,0,0,3.8373,3.838,3.8435,3.8438,3.84,3.8427,3.8432,3.8445,3.8466,3.8468,3.8452,3.8451,3.8485,3.8489,3.8492,3.853,3.8503,3.8505,3.8506,3.859,3.8591,3.8592,0,0,0,0,0,0,3.8372,3.8378,3.8434,3.8409,3.8416,3.843,3.8445,3.8446,3.8456,3.847,3.8472,3.8459,3.8485,3.8489,3.8517,3.8531,3.8506,3.8508,3.8588,3.859,3.8591,3.8604,0,0,0,0,0,0,3.837,3.8378,3.839,3.8409,3.8417,3.8458,3.8446,3.8448,3.846,3.8459,3.8477,3.848,3.8484,3.8513,3.8519,3.8534,3.851,3.8587,3.8589,3.8591,3.8603,3.8606,3.8609,0,0,0,0,0,3.8367,3.8391,3.839,3.8397,3.8433,3.8459,3.8464,3.8469,3.8461,3.8473,3.8482,3.8479,3.8529,3.8516,3.8522,3.8538,3.8586,3.8589,3.8591,3.8601,3.8605,3.8609,0,0,0,0,0,0,3.8371,3.8393,3.8393,3.8424,3.844,3.8459,3.8474,3.8473,3.8491,3.8489,3.8495,3.8499,3.8527,3.8535,3.8521,3.8569,3.8556,3.856,3.8562,3.8566,3.8569,3.8567,3.8512,0,0,0,0,0,3.8376,3.8396,3.8414,3.844,3.8448,3.846,3.8471,3.8475,3.8491,3.8497,3.8508,3.8523,3.8542,3.8555,3.8573,3.8604,3.8608,3.8618,3.8621,3.8623,3.8626,3.8645,3.8649,3.8599,3.8599,3.8599,0,0,3.8385,3.84,3.8412,3.8441,3.8454,3.8475,3.8465,3.8487,3.8502,3.85,3.8527,3.8536,3.8553,3.8583,3.8596,3.8591,3.8641,3.8626,3.8628,3.863,3.8647,3.8652,3.8656,3.8601,3.86,3.86,0,0,3.8414,3.8427,3.845,3.8464,3.8484,3.8491,3.8497,3.8516,3.8523,3.855,3.8549,3.8567,3.86,3.8612,3.8623,3.8658,3.8656,3.8664,3.868,3.8698,3.8702,3.8705,3.8719,3.8723,3.8667,3.8667,3.8667,0,3.8423,3.8455,3.8462,3.8485,3.8498,3.8498,3.8522,3.8535,3.8559,3.8568,3.8561,3.8603,3.8614,3.8648,3.8657,3.8665,3.8672,3.8662,3.8701,3.8704,3.8708,3.8721,3.8726,3.8668,3.8667,3.8667,3.8667,0,3.8466,3.8488,3.8505,3.853,3.8545,3.8568,3.8578,3.8592,3.8595,3.8603,3.8632,3.8646,3.8667,3.8675,3.8677,3.8709,3.8705,3.87,3.8687,3.8713,3.8726,3.873,3.8669,3.8668,3.8668,3.8668,0,0,3.8497,3.8527,3.8533,3.8546,3.8568,3.8585,3.8609,3.8631,3.8644,3.8661,3.8681,3.8709,3.8705,3.8717,3.872,3.8735,3.8764,3.8728,3.8729,3.8735,3.8801,3.8806,3.8811,3.8762,3.8763,3.8764,3.88,0,3.8528,3.8571,3.8579,3.8616,3.8637,3.8639,3.8659,3.8675,3.8684,3.8702,3.8711,3.8732,3.8724,3.8732,3.8747,3.8757,3.8777,3.8754,3.8781,3.8782,3.8777,3.8818,3.8822,3.8855,3.8805,3.8806,3.8806,0,3.857,3.859,3.863,3.8652,3.8661,3.8679,3.8701,3.8719,3.8737,3.8743,3.8757,3.8759,3.8784,3.877,3.8804,3.8788,3.88,3.8806,3.8808,3.8811,3.8796,3.8822,3.8866,3.8871,3.8813,3.8813,3.8812,0,3.859,3.8627,3.8656,3.8666,3.8692,3.8705,3.8716,3.8733,3.8747,3.8766,3.8775,3.8796,3.8808,3.8824,3.8831,3.8821,3.8865,3.8852,3.887,3.887,3.8879,3.8879,3.8926,3.8886,3.8886,3.8885,3.8885,0,3.8625,3.8649,3.8666,3.8684,3.8711,3.872,3.8747,3.8757,3.8773,3.8793,3.8795,3.8813,3.8822,3.8841,3.8847,3.8875,3.8879,3.8884,3.8886,3.8885,3.8884,3.8892,3.8891,3.8887,3.8886,3.8886,3.8886,0,3.8652,3.8664,3.8696,3.8718,3.8724,3.8744,3.8762,3.878,3.8789,3.8814,3.882,3.8834,3.8857,3.8867,3.8894,3.8898,3.893,3.8929,3.8925,3.8925,3.8943,3.8942,3.8998,3.9006,3.896,3.896,3.896,0,3.8673,3.8693,3.8718,3.8732,3.8744,3.8766,3.8781,3.879,3.8805,3.8828,3.8843,3.8866,3.8886,3.8923,3.8935,3.8957,3.8957,3.8975,3.896,3.8959,3.8958,3.8957,3.896,3.8978,3.8978,3.8979,3.8979,0,3.8711,3.8716,3.8738,3.8762,3.878,3.8799,3.8817,3.8829,3.8841,3.8857,3.8882,3.8897,3.8927,3.8951,3.8973,3.8984,3.8984,3.8984,3.8989,3.8989,3.8986,3.8989,3.8933,3.8982,3.8982,3.8982,3.8982,3.8981,3.8737,3.8754,3.8775,3.88,3.8815,3.8833,3.8851,3.8863,3.8884,3.891,3.8914,3.894,3.8959,3.899,3.9001,3.9022,3.9017,3.9025,3.9027,3.9029,3.9031,3.8982,3.9026,3.9026,3.9026,3.9025,3.9025,0,3.8775,3.8789,3.8811,3.8838,3.8858,3.8857,3.8878,3.8894,3.8918,3.8936,3.8955,3.8984,3.9008,3.9022,3.9045,3.9059,3.906,3.9065,3.9065,3.9067,3.9033,3.9026,3.9064,3.9064,3.9064,3.9064,3.9064,3.9064,3.8797,3.8828,3.8836,3.8875,3.8888,3.8915,3.8927,3.8944,3.8958,3.8991,3.9011,3.9021,3.9038,3.9063,3.9084,3.9088,3.9096,3.9102,3.9106,3.9073,3.9069,3.9066,3.9059,3.9104,3.9104,3.9138,3.9139,3.9139]}]]